Location: Bear Branch Nature Center
(39.6445°N, 76.9901°W)
Time: 05:20:23
(UTC-04:00)

Daily predictions for brighter satellites

Satellite Brightness Start Highest point End
(mag) Time Altitude Azimuth Time Altitude Azimuth Time Altitude Azimuth
ATLAS 3B R/B 4.2 00:07:19 10° WNW 00:11:07 23° W 00:11:07 23° W
Cosmos 2219 Rocket 3.5 00:14:24 36° NNW 00:14:24 36° NNW 00:18:32 10° N
SL-16 R/B 4.2 00:21:37 20° NE 00:21:37 20° NE 00:23:23 10° NNE
CZ-2C R/B 4.3 00:16:45 10° NNE 00:19:21 30° NNE 00:19:21 30° NNE
Terra 4.5 00:24:36 13° WNW 00:24:36 13° WNW 00:25:37 10° NW
NOSS 3-2 (C) 4.4 00:20:16 10° NW 00:26:27 57° WNW 00:26:27 57° WNW
Cosmos 2333 Rocket 3.7 00:32:48 32° NNW 00:32:48 32° NNW 00:36:41 10° N
Cosmos 2237 Rocket 3.9 00:57:08 28° NNW 00:57:08 28° NNW 01:00:37 10° N
Mayak 1.9 00:52:04 10° NNE 00:52:17 11° NNE 00:52:17 11° NNE
Cosmos 2369 Rocket 4.3 00:56:14 10° N 00:59:57 19° NE 00:59:57 19° NE
CENTAUR R/B 3.3 00:57:59 10° NW 01:04:38 66° NNW 01:04:38 66° NNW
USA 215 3.9 01:13:10 52° N 01:13:10 52° N 01:18:28 10° NW
ATLAS CENTAUR R/B 4.3 01:29:43 10° NW 01:35:02 32° NNW 01:35:02 32° NNW
SL-16 R/B 4.1 02:03:29 22° NW 02:03:29 22° NW 02:06:50 10° N
SL-16 R/B 3.8 02:30:30 30° E 02:32:06 34° ENE 02:37:36 10° N
Cosmos 1943 Rocket 3.3 02:27:30 10° NNW 02:31:11 39° N 02:31:11 39° N
Resurs 1-4 Rocket 3.8 02:34:42 10° NE 02:38:22 26° E 02:38:22 26° E
Cosmos 2369 Rocket 3.8 02:39:09 10° NNW 02:41:42 27° NW 02:41:42 27° NW
CZ-3A R/B 3.7 02:37:37 10° NW 02:47:48 66° NE 02:53:06 10° ESE
CZ-2D R/B 3.5 02:44:42 10° NNE 02:48:55 32° E 02:48:55 32° E
Cosmos 1943 4.2 02:56:08 40° NNW 02:56:08 40° NNW 03:00:17 10° NNE
Cosmos 841 Rocket 4.4 03:01:51 45° N 03:01:51 45° N 03:05:27 10° NNE
ARIANE 5 R/B 3.3 03:07:26 10° NNE 03:12:11 45° E 03:12:11 45° E
Cosmos 1000 Rocket 4.5 03:07:14 10° N 03:12:56 74° NW 03:12:56 74° NW
BREEZE-M DEB (TANK) 4.1 03:13:14 45° NW 03:14:35 55° N 03:31:52 10° ENE
Cosmos 2239 Rocket 4.4 03:19:57 78° WNW 03:19:57 78° WNW 03:26:06 10° N
ADEOS Rocket 3.3 03:17:17 10° N 03:21:45 48° NW 03:21:45 48° NW
Cosmos 1726 4.3 03:29:16 22° ENE 03:29:16 22° ENE 03:31:41 10° NE
Cosmos 1535 Rocket 4.4 03:28:55 74° W 03:28:59 74° W 03:35:24 10° N
IRS-1D 3.5 03:31:39 10° NNE 03:36:35 82° NNE 03:36:35 82° NNE
Cosmos 2221 3.2 03:41:00 51° N 03:41:00 51° N 03:44:17 10° N
Cosmos 1805 Rocket 4.1 03:38:01 10° N 03:42:20 55° ENE 03:42:20 55° ENE
ADEOS 3.5 03:39:44 10° NNE 03:44:59 80° ESE 03:45:16 76° SSE
Spot 4 Rocket 4.0 03:40:10 10° N 03:45:08 74° NW 03:45:08 74° NW
COSMOS 2406 3.1 03:47:05 71° S 03:47:39 81° ESE 03:53:22 10° NNE
Cosmos 2285 Rocket 4.1 03:46:51 51° S 03:48:27 71° ESE 03:54:49 10° NNE
Cosmos 372 Rocket 3.8 03:45:54 10° NNW 03:51:00 82° W 03:51:00 82° W
Cosmos 2098 Rocket 4.0 03:52:13 54° W 03:52:13 54° W 03:57:18 10° N
CBERS 1 LM4 rocket 4.5 03:49:17 10° N 03:54:26 70° WNW 03:54:37 69° W
Cosmos 540 Rocket 3.9 03:58:15 46° WNW 03:58:15 46° WNW 04:02:59 10° N
Okean O Rocket 4.4 03:57:08 10° ENE 03:59:10 13° E 04:01:12 10° ESE
Cosmos 783 Rocket 4.4 04:05:05 65° WSW 04:05:42 73° WNW 04:10:58 10° NNE
MOS 1 Rocket 3.5 04:03:31 10° N 04:07:19 50° NW 04:07:19 50° NW
Cosmos 1300 3.0 04:12:33 59° ESE 04:12:51 62° E 04:16:38 10° NNE
Cosmos 1125 Rocket 4.2 04:10:24 10° NNW 04:14:14 37° WNW 04:14:14 37° WNW
SL-16 R/B 3.0 04:15:37 38° W 04:15:37 38° W 04:21:21 10° NNW
Cosmos 1943 Rocket 4.4 04:12:31 10° WNW 04:12:39 10° WNW 04:12:39 10° WNW
Sich 1 2.9 04:12:23 10° N 04:16:48 88° E 04:17:46 54° S
BREEZE M DEB (TANK) 4.1 04:17:34 23° ENE 04:17:34 23° ENE 04:18:54 10° E
Resurs 1-4 Rocket 2.8 04:14:14 10° N 04:18:58 36° WNW 04:19:26 35° W
Cosmos 2123 Rocket 4.3 04:14:08 10° NNW 04:19:58 42° W 04:20:53 40° WSW
CZ-2D R/B 3.2 04:17:08 10° N 04:21:08 72° WNW 04:21:16 71° W
Cosmos 1656 Rocket 4.2 04:19:10 10° NW 04:24:04 38° W 04:24:04 38° W
Cosmos 1315 Rocket 2.6 04:23:59 10° NNW 04:28:01 73° W 04:28:33 62° SSW
CZ-2D R/B 3.1 04:24:52 10° N 04:29:28 30° WNW 04:30:15 29° W
Cosmos 1459 Rocket 4.0 04:25:34 19° S 04:30:06 76° E 04:36:10 10° N
Cosmos 1470 Rocket 4.3 04:28:34 10° N 04:32:48 52° E 04:37:00 10° SSE
Cosmos 1538 Rocket 4.0 04:30:39 33° SSW 04:33:09 87° ESE 04:38:33 10° NNE
Cosmos 2228 Rocket 3.3 04:31:13 27° S 04:33:36 70° E 04:38:03 10° NNE
USA 229 DEB 3.9 04:30:45 10° NW 04:37:43 55° WSW 04:44:49 10° SSE
USA 229 3.8 04:30:51 10° NW 04:37:50 55° WSW 04:44:55 10° SSE
Cosmos 2082 Rocket 3.6 04:35:00 10° SSE 04:40:00 35° ESE 04:45:03 10° NE
Cosmos 1515 Rocket 3.8 04:37:53 21° S 04:40:42 69° E 04:45:06 10° NNE
NOSS 3-1 (A) 4.4 04:35:20 10° NNW 04:42:58 68° NE 04:51:23 10° SE
PSLV R/B 3.3 04:42:54 49° WNW 04:43:35 68° N 04:46:49 10° E
Cosmos 1633 Rocket 3.1 04:40:55 10° NNW 04:45:10 53° W 04:46:49 33° SSW
USA 161 3.3 04:47:07 15° N 04:47:07 15° N 04:47:34 10° N
Tiangong 2 2.6 04:46:42 25° SSE 04:47:06 26° SSE 04:49:51 10° E
Cosmos 292 Rocket 4.4 04:46:24 32° WSW 04:47:47 39° WNW 04:52:18 10° N
PSLV R/B 4.4 04:43:47 10° NNE 04:47:54 60° E 04:51:13 15° S
Cosmos 2061 Rocket 4.0 04:43:46 14° S 04:49:27 86° W 04:55:55 10° N
ARIANE 5 R/B 3.9 04:47:18 10° NNW 04:51:14 22° WNW 04:52:31 20° W
Lacrosse 5 3.4 04:46:42 10° NNW 04:51:25 37° NE 04:56:05 10° ESE
CZ-4B R/B 3.4 04:52:29 10° NNE 04:56:57 69° ESE 05:01:28 10° S
CZ-4B R/B 4.1 04:52:49 10° NNE 04:58:07 49° E 05:03:18 10° S
UNKNOWN OBJECT B 4.2 04:56:10 10° NNW 04:59:21 22° WNW 05:00:00 22° W
Cosmos 1680 Rocket 4.3 04:56:01 10° S 05:01:07 52° ESE 05:06:17 10° NNE
Cosmos 1726 3.7 05:03:54 19° WNW 05:03:57 19° WNW 05:06:39 10° NNW
Cosmos 1328 Rocket 4.0 05:05:17 24° SW 05:07:19 40° WNW 05:11:26 10° N
Cosmos 2369 3.9 05:02:16 10° NNW 05:07:56 77° ENE 05:13:35 10° SSE
SL-27 R/B 4.0 05:08:12 19° WNW 05:08:39 19° WNW 05:11:11 10° NNW
Cosmos 2016 Rocket 3.9 05:03:24 10° SSW 05:09:31 75° W 05:15:38 10° N
ADEOS II 2.1 05:04:38 10° N 05:09:52 70° WNW 05:14:52 11° SSW
Meteor 1-27 4.2 05:05:11 10° S 05:10:53 86° W 05:16:31 10° N
Cosmos 1892 2.7 05:07:14 10° N 05:11:05 87° E 05:14:55 10° S
USA 234 4.2 05:05:02 10° ENE 05:11:11 41° SE 05:17:16 10° SSW
Landsat 4 4.4 05:08:25 10° SSE 05:12:03 56° ENE 05:15:45 10° N
NOSS 3-1 (C) 4.1 05:05:02 10° NW 05:12:42 67° WSW 05:21:04 10° SSE
MOS 1-B 4.5 05:07:40 10° N 05:13:22 58° WNW 05:18:38 12° SSW
Hubble Space Telescope 2.7 05:12:56 14° SSW 05:14:22 16° S 05:17:00 10° SE
Shenzhou-11 Module 2.2 05:14:51 26° SW 05:16:22 61° SSE 05:19:26 10° ENE
In-Cosmos 22 Rocket 4.4 05:12:17 10° NNW 05:17:24 45° W 05:22:25 10° SSW
PSLV R/B 3.5 05:13:28 10° N 05:17:49 77° WNW 05:22:06 10° SSW
BREEZE-M DEB (TANK) 3.1 05:20:13 19° SW 05:20:13 19° SW 05:22:38 10° SSE
Cosmos 1725 Rocket 4.0 05:15:57 10° S 05:22:09 85° W 05:28:21 10° N
Cosmos 1656 3.9 05:16:51 10° NNW 05:22:35 78° ENE 05:28:16 10° SSE
Cosmos 1802 Rocket 4.3 05:17:49 10° SSW 05:23:40 48° WNW 05:29:43 10° N
Cosmos 1825 4.3 05:22:57 10° NNE 05:26:22 31° ENE 05:29:46 10° SE
Cosmos 1933 Rocket 4.0 05:22:44 10° NNW 05:26:57 42° W 05:31:08 10° SSW
COSMOS 2487 2.4 05:28:41 10° SSW 05:32:08 65° WNW 05:35:40 10° NNE
Okean-O 4.5 05:28:09 10° NNE 05:32:09 32° E 05:36:07 10° SSE
Abrixas 2.0 05:29:57 10° WNW 05:32:34 66° SSW 05:35:09 10° SE
Okean O Rocket 1.8 05:31:32 10° N 05:35:51 54° WNW 05:40:08 10° SSW
Cosmos 1833 Rocket 2.7 05:33:21 10° SSW 05:38:59 76° WNW 05:44:40 10° NNE
Cosmos 1151 Rocket 3.9 05:38:27 10° SW 05:42:12 29° WNW 05:45:59 10° NNW
Cosmos 1408 3.5 05:39:15 10° N 05:42:49 53° E 05:46:20 10° SSE
Tsikada Rocket 4.0 05:38:01 10° NNW 05:44:17 68° W 05:50:35 10° S
Cosmos 1707 Rocket 3.9 05:40:36 10° S 05:44:59 71° E 05:49:23 10° NNE
Cosmos 1980 Rocket 3.0 05:48:37 10° NNW 05:54:09 57° ENE 05:59:40 10° SE
Cosmos 2278 4.1 05:52:21 10° NW 05:57:37 41° WSW 06:02:52 10° S
ASTEX 1 4.2 05:56:02 10° NNE 06:00:51 56° E 06:05:38 10° S
